Darstellungsparameter: Aktuell verwendete Einstellungen:
Skalierung der Graphiken ... ?
xyx+y,   Skalierungsfaktor:      Skalierung: Modus: x, Faktor: 1
Darstellungszeitraum ... ?
Vom - - bis: - -   Zeitraum: 14.04.2010 - 20.04.2010
Min/Max/Avg-Anzeige ... ?
Zeige MMA aktuell
Zeige MMA Monat
Zeige MMA alles
Zeige --A aktuell
Zeige --A Monat
Zeige --A alles
Keine MMA-Anzeige
MMA:
Average (ber die Originaldaten)
MMA-Basis: 14.04.2010 - 20.04.2010
Quicknavigation für Darstellung... ?
Tage:      1T, 2T, 3T, 5T -1T -2T -3T -5T +1T +2T +3T +5T
Wochen: 1W, 2W, 3W -1W -2W -3W +1W +2W +3W
Monate: 1M, 3M, 6M -1M -3M -6M +1M +3M +6M
Jahre:    1J, 3J, 5J, 10J -1J -3J -5J -10J +1J +3J +5J +10J
Nutze für die Darstellung ... ?
Originaldaten oder Mittelwerte auf ...
Stundenbasis Tagesbasis Wochenbasis
Monatsbasis Jahresbasis      Datenbasis: Original-Daten
Darstellen als:
Statistik (Auto) Statistik J:M      Darstellung:
Zur Graphik,    zurück zur Übersicht aller Sensoren.
 
Tabellarische Datenbersicht: ?
 
Sensor: Nr:Datum:Temp:Abs-Feuchte:Windchill:Wind:
Aussen-T/F 1 14-04-2010 00:00:02 11.6 C 5.2 g/m*3 11.6 C 0 km/h
2 14-04-2010 00:12:02 11.5 C 5.16 g/m*3 11.5 C 0 km/h
3 14-04-2010 00:24:02 11.3 C 5.2 g/m*3 11.3 C 0 km/h
4 14-04-2010 00:36:02 11.4 C 5.23 g/m*3 11.4 C 0 km/h
5 14-04-2010 00:48:02 11.2 C 5.17 g/m*3 11.2 C 0 km/h
6 14-04-2010 01:00:02 11.1 C 5.14 g/m*3 11.1 C 0 km/h
7 14-04-2010 01:12:02 11 C 5.2 g/m*3 11 C 0 km/h
8 14-04-2010 01:24:03 11 C 5 g/m*3 11 C 0 km/h
9 14-04-2010 01:36:02 10.9 C 5.17 g/m*3 10.9 C 0 km/h
10 14-04-2010 01:48:03 10.9 C 5.07 g/m*3 10.9 C 0 km/h
11 14-04-2010 02:00:03 10.7 C 5.01 g/m*3 10.7 C 0 km/h
12 14-04-2010 02:12:02 10.7 C 5.01 g/m*3 10.7 C 0 km/h
13 14-04-2010 02:24:03 10.6 C 5.08 g/m*3 10.6 C 0 km/h
14 14-04-2010 02:36:02 10.4 C 5.11 g/m*3 10.4 C 0 km/h
15 14-04-2010 02:48:02 10.1 C 5.01 g/m*3 10.1 C 0 km/h
16 14-04-2010 03:00:02 9.8 C 5.1 g/m*3 9.8 C 0 km/h
17 14-04-2010 03:12:01 9.5 C 5.01 g/m*3 9.5 C 0 km/h
18 14-04-2010 03:24:01 9.3 C 5.03 g/m*3 9.3 C 0 km/h
19 14-04-2010 03:36:01 9 C 5.03 g/m*3 9 C 0 km/h
20 14-04-2010 03:48:01 8.8 C 5.05 g/m*3 8.8 C 0 km/h
21 14-04-2010 04:00:01 8.8 C 5.14 g/m*3 8.8 C 0 km/h
22 14-04-2010 04:12:01 8.5 C 5.12 g/m*3 8.5 C 0 km/h
23 14-04-2010 04:24:02 8.3 C 5.23 g/m*3 8.3 C 0 km/h
24 14-04-2010 04:36:01 8.3 C 5.23 g/m*3 8.3 C 0 km/h
25 14-04-2010 04:48:01 8.4 C 5.26 g/m*3 8.4 C 0 km/h
Sensor: Nr:Datum:Temp:Abs-Feuchte:Windchill:Wind:
Aussen-T/F 26 14-04-2010 05:00:01 8.5 C 5.29 g/m*3 8.5 C 0 km/h
27 14-04-2010 05:12:01 8.4 C 5.34 g/m*3 8.4 C 0 km/h
28 14-04-2010 05:24:02 8.3 C 5.31 g/m*3 8.3 C 0 km/h
29 14-04-2010 05:36:01 8.1 C 5.33 g/m*3 8.1 C 0 km/h
30 14-04-2010 05:48:02 7.8 C 5.3 g/m*3 7.8 C 0 km/h
31 14-04-2010 06:00:02 7.8 C 5.3 g/m*3 7.8 C 0 km/h
32 14-04-2010 06:12:01 7.9 C 5.26 g/m*3 7.9 C 0 km/h
33 14-04-2010 06:24:02 7.7 C 5.11 g/m*3 7.7 C 0 km/h
34 14-04-2010 06:36:01 7.4 C 5.01 g/m*3 7.4 C 0 km/h
35 14-04-2010 06:48:02 7.1 C 4.99 g/m*3 7.1 C 0 km/h
36 14-04-2010 07:00:02 7 C 4.96 g/m*3 7 C 0 km/h
37 14-04-2010 07:12:01 6.9 C 5 g/m*3 6.9 C 0 km/h
38 14-04-2010 07:24:01 6.8 C 5.05 g/m*3 6.8 C 0 km/h
39 14-04-2010 07:36:02 7.2 C 5.18 g/m*3 7.2 C 0 km/h
40 14-04-2010 07:48:01 7.5 C 5.2 g/m*3 7.5 C 0 km/h
41 14-04-2010 08:00:01 7.5 C 5.2 g/m*3 7.5 C 0 km/h
42 14-04-2010 08:12:01 7.6 C 5.32 g/m*3 7.6 C 0 km/h
43 14-04-2010 08:24:01 7.8 C 5.39 g/m*3 7.8 C 0 km/h
44 14-04-2010 08:36:02 8 C 5.21 g/m*3 8 C 0 km/h
45 14-04-2010 08:48:02 8.2 C 5.11 g/m*3 8.2 C 0 km/h
46 14-04-2010 09:00:02 8.4 C 5.17 g/m*3 8.4 C 0 km/h
47 14-04-2010 09:12:01 8.4 C 5.09 g/m*3 8.4 C 0 km/h
48 14-04-2010 09:24:01 8.6 C 5.16 g/m*3 8.6 C 0 km/h
49 14-04-2010 09:36:02 9.1 C 5.15 g/m*3 9.1 C 0 km/h
50 14-04-2010 09:48:01 9.5 C 5.19 g/m*3 9.5 C 0 km/h
Sensor: Nr:Datum:Temp:Abs-Feuchte:Windchill:Wind:
Aussen-T/F 51 14-04-2010 10:00:01 9.9 C 5.14 g/m*3 9.9 C 0 km/h
52 14-04-2010 10:12:01 10.5 C 5.14 g/m*3 10.5 C 0 km/h
53 14-04-2010 10:24:01 11 C 5 g/m*3 11 C 0 km/h
54 14-04-2010 10:36:02 11.5 C 5.16 g/m*3 11.5 C 0 km/h
55 14-04-2010 10:48:01 11.7 C 4.81 g/m*3 11.7 C 0 km/h
56 14-04-2010 11:00:01 11.9 C 4.87 g/m*3 11.9 C 0 km/h
57 14-04-2010 11:12:02 12.8 C 4.93 g/m*3 12.8 C 0 km/h
58 14-04-2010 11:24:01 13.1 C 4.68 g/m*3 13.1 C 0 km/h
59 14-04-2010 11:36:01 13.5 C 4.91 g/m*3 13.5 C 0 km/h
60 14-04-2010 11:48:01 14.1 C 4.85 g/m*3 14.1 C 0 km/h
61 14-04-2010 12:00:01 13.8 C 4.65 g/m*3 13.8 C 0 km/h
62 14-04-2010 12:12:02 13.4 C 4.65 g/m*3 13.4 C 0 km/h
63 14-04-2010 12:24:01 13.6 C 4.59 g/m*3 13.6 C 0 km/h
64 14-04-2010 12:36:01 13.7 C 4.74 g/m*3 13.7 C 0 km/h
65 14-04-2010 12:48:01 14.9 C 4.72 g/m*3 14.9 C 0 km/h
66 14-04-2010 13:00:01 14.4 C 4.33 g/m*3 14.4 C 0 km/h
67 14-04-2010 13:12:02 14.5 C 3.98 g/m*3 14.5 C 0 km/h
68 14-04-2010 13:24:01 13.5 C 4.09 g/m*3 13.5 C 0 km/h
69 14-04-2010 13:36:01 14.4 C 3.96 g/m*3 14.4 C 0 km/h
70 14-04-2010 13:48:01 14.3 C 3.81 g/m*3 14.3 C 0 km/h
71 14-04-2010 14:00:01 13.7 C 4.03 g/m*3 13.7 C 0 km/h
72 14-04-2010 14:12:01 14.5 C 3.86 g/m*3 14.5 C 0 km/h
73 14-04-2010 14:24:01 14 C 3.74 g/m*3 14 C 0 km/h
74 14-04-2010 14:36:01 13.5 C 3.98 g/m*3 13.5 C 0 km/h
75 14-04-2010 14:48:01 13.7 C 4.14 g/m*3 13.7 C 0 km/h
Sensor: Nr:Datum:Temp:Abs-Feuchte:Windchill:Wind:
Aussen-T/F 76 14-04-2010 15:00:01 14.3 C 3.69 g/m*3 14.3 C 0 km/h
77 14-04-2010 15:12:01 15.8 C 3.37 g/m*3 15.8 C 0 km/h
78 14-04-2010 15:24:02 15.1 C 2.58 g/m*3 15.1 C 0 km/h
79 14-04-2010 15:36:01 14.8 C 2.53 g/m*3 14.8 C 0 km/h
80 14-04-2010 15:48:02 14.4 C 2.47 g/m*3 14.4 C 0 km/h
81 14-04-2010 16:00:02 16 C 4.22 g/m*3 16 C 0 km/h
82 14-04-2010 16:12:01 16.2 C 3.45 g/m*3 16.2 C 0 km/h
83 14-04-2010 16:24:02 16.3 C 2.77 g/m*3 16.3 C 0 km/h
84 14-04-2010 16:36:01 18.5 C 3.16 g/m*3 18.5 C 0 km/h
85 14-04-2010 16:48:02 17.2 C 2.93 g/m*3 17.2 C 0 km/h
86 14-04-2010 17:00:02 16.3 C 2.77 g/m*3 16.3 C 0 km/h
87 14-04-2010 17:12:01 17.2 C 2.93 g/m*3 17.2 C 0 km/h
88 14-04-2010 17:24:01 18.1 C 3.09 g/m*3 18.1 C 0 km/h
89 14-04-2010 17:36:01 17.2 C 2.93 g/m*3 17.2 C 0 km/h
90 14-04-2010 17:48:02 16.7 C 2.84 g/m*3 16.7 C 0 km/h
91 14-04-2010 18:00:02 16.8 C 2.86 g/m*3 16.8 C 0 km/h
92 14-04-2010 18:12:01 18.1 C 3.09 g/m*3 18.1 C 0 km/h
93 14-04-2010 18:24:01 18.9 C 3.24 g/m*3 18.9 C 0 km/h
94 14-04-2010 18:36:02 17.3 C 2.95 g/m*3 17.3 C 0 km/h
95 14-04-2010 18:48:02 15.6 C 2.66 g/m*3 15.6 C 0 km/h
96 14-04-2010 19:00:02 15.8 C 2.96 g/m*3 15.8 C 0 km/h
97 14-04-2010 19:12:01 15.3 C 2.74 g/m*3 15.3 C 0 km/h
98 14-04-2010 19:24:01 14.7 C 3.15 g/m*3 14.7 C 0 km/h
99 14-04-2010 19:36:02 14.3 C 3.07 g/m*3 14.3 C 0 km/h
100 14-04-2010 19:48:01 14 C 3.26 g/m*3 14 C 0 km/h
Sensor: Nr:Datum:Temp:Abs-Feuchte:Windchill:Wind:
Aussen-T/F 101 14-04-2010 20:00:01 13.6 C 3.41 g/m*3 13.6 C 0 km/h
102 14-04-2010 20:12:02 13.1 C 3.65 g/m*3 13.1 C 0 km/h
103 14-04-2010 20:24:01 13 C 3.74 g/m*3 13 C 0 km/h
104 14-04-2010 20:36:02 12.7 C 3.9 g/m*3 12.7 C 0 km/h
105 14-04-2010 20:48:01 12.4 C 4.04 g/m*3 12.4 C 0 km/h
106 14-04-2010 21:00:01 11.7 C 3.97 g/m*3 11.7 C 0 km/h
107 14-04-2010 21:12:02 11.2 C 4.05 g/m*3 11.2 C 0 km/h
108 14-04-2010 21:24:01 10.7 C 4.03 g/m*3 10.7 C 0 km/h
109 14-04-2010 21:36:01 10.5 C 4.07 g/m*3 10.5 C 0 km/h
110 14-04-2010 21:48:01 10.3 C 4.12 g/m*3 10.3 C 0 km/h
111 14-04-2010 22:00:01 10.3 C 4.21 g/m*3 10.3 C 0 km/h
112 14-04-2010 22:12:02 10.4 C 4.34 g/m*3 10.4 C 0 km/h
113 14-04-2010 22:24:01 10.8 C 4.45 g/m*3 10.8 C 0 km/h
114 14-04-2010 22:36:01 11 C 4.6 g/m*3 11 C 0 km/h
115 14-04-2010 22:48:01 11 C 4.7 g/m*3 11 C 0 km/h
116 14-04-2010 23:00:01 10.9 C 4.97 g/m*3 10.9 C 0 km/h
117 14-04-2010 23:12:01 10.8 C 4.94 g/m*3 10.8 C 0 km/h
118 14-04-2010 23:24:01 10.8 C 5.04 g/m*3 10.8 C 0 km/h
119 14-04-2010 23:36:01 10.6 C 4.98 g/m*3 10.6 C 0 km/h
120 14-04-2010 23:48:01 10.5 C 5.04 g/m*3 10.5 C 0 km/h
121 15-04-2010 00:00:01 10.3 C 5.08 g/m*3 10.3 C 0 km/h
122 15-04-2010 00:12:01 10.2 C 5.14 g/m*3 10.2 C 0 km/h
123 15-04-2010 00:24:02 10.1 C 5.11 g/m*3 10.1 C 0 km/h
124 15-04-2010 00:36:01 10.1 C 5.2 g/m*3 10.1 C 0 km/h
125 15-04-2010 00:48:01 10.1 C 5.2 g/m*3 10.1 C 0 km/h
Sensor: Nr:Datum:Temp:Abs-Feuchte:Windchill:Wind:
Aussen-T/F 126 15-04-2010 01:00:01 10.1 C 5.2 g/m*3 10.1 C 0 km/h
127 15-04-2010 01:12:01 10.1 C 5.3 g/m*3 10.1 C 0 km/h
128 15-04-2010 01:24:02 10.1 C 5.3 g/m*3 10.1 C 0 km/h
129 15-04-2010 01:36:01 10.1 C 5.3 g/m*3 10.1 C 0 km/h
130 15-04-2010 01:48:02 10 C 5.26 g/m*3 10 C 0 km/h
131 15-04-2010 02:00:02 9.9 C 5.32 g/m*3 9.9 C 0 km/h
132 15-04-2010 02:12:01 9.8 C 5.38 g/m*3 9.8 C 0 km/h
133 15-04-2010 02:24:02 9.8 C 5.38 g/m*3 9.8 C 0 km/h
134 15-04-2010 02:36:01 9.7 C 5.35 g/m*3 9.7 C 0 km/h
135 15-04-2010 02:49:07 9.7 C 5.44 g/m*3 9.7 C 0 km/h
136 15-04-2010 03:01:07 9.6 C 5.4 g/m*3 9.6 C 0 km/h
137 15-04-2010 03:13:06 9.5 C 5.37 g/m*3 9.5 C 0 km/h
138 15-04-2010 03:25:06 9.5 C 5.37 g/m*3 9.5 C 0 km/h
139 15-04-2010 03:37:01 9.4 C 5.34 g/m*3 9.4 C 0 km/h
140 15-04-2010 03:49:01 9.3 C 5.3 g/m*3 9.3 C 0 km/h
141 15-04-2010 04:01:01 9.1 C 5.32 g/m*3 9.1 C 0 km/h
142 15-04-2010 04:13:01 8.7 C 5.28 g/m*3 8.7 C 0 km/h
143 15-04-2010 04:25:02 8.4 C 5.34 g/m*3 8.4 C 0 km/h
144 15-04-2010 04:37:01 8.4 C 5.34 g/m*3 8.4 C 0 km/h
145 15-04-2010 04:49:01 8.7 C 5.36 g/m*3 8.7 C 0 km/h
146 15-04-2010 05:01:01 8.8 C 5.4 g/m*3 8.8 C 0 km/h
147 15-04-2010 05:13:01 8.9 C 5.43 g/m*3 8.9 C 0 km/h
148 15-04-2010 05:25:02 9 C 5.38 g/m*3 9 C 0 km/h
149 15-04-2010 05:37:01 9 C 5.38 g/m*3 9 C 0 km/h
150 15-04-2010 05:49:03 8.9 C 5.43 g/m*3 8.9 C 0 km/h
Sensor: Nr:Datum:Temp:Abs-Feuchte:Windchill:Wind:
Aussen-T/F 151 15-04-2010 06:01:02 8.9 C 5.43 g/m*3 8.9 C 0 km/h
152 15-04-2010 06:13:02 8.9 C 5.43 g/m*3 8.9 C 0 km/h
153 15-04-2010 06:25:02 8.6 C 5.41 g/m*3 8.6 C 0 km/h
154 15-04-2010 06:37:02 8 C 5.29 g/m*3 8 C 0 km/h
155 15-04-2010 06:49:02 7.6 C 5.4 g/m*3 7.6 C 0 km/h
156 15-04-2010 07:01:02 7.3 C 5.37 g/m*3 7.3 C 0 km/h
157 15-04-2010 07:13:02 7.3 C 5.45 g/m*3 7.3 C 0 km/h
158 15-04-2010 07:25:02 7.1 C 5.38 g/m*3 7.1 C 0 km/h
159 15-04-2010 07:37:01 7.2 C 5.42 g/m*3 7.2 C 0 km/h
160 15-04-2010 07:49:02 7.5 C 5.52 g/m*3 7.5 C 0 km/h
161 15-04-2010 08:01:01 7.8 C 5.55 g/m*3 7.8 C 0 km/h
162 15-04-2010 08:13:01 8.1 C 5.49 g/m*3 8.1 C 0 km/h
163 15-04-2010 08:25:01 8.4 C 5.43 g/m*3 8.4 C 0 km/h
164 15-04-2010 08:37:02 8.8 C 5.48 g/m*3 8.8 C 0 km/h
165 15-04-2010 08:49:02 9 C 5.29 g/m*3 9 C 0 km/h
166 15-04-2010 09:01:01 9.3 C 5.39 g/m*3 9.3 C 0 km/h
167 15-04-2010 09:13:01 9.3 C 5.21 g/m*3 9.3 C 0 km/h
168 15-04-2010 09:25:02 9.8 C 5.38 g/m*3 9.8 C 0 km/h
169 15-04-2010 09:37:02 10.4 C 5.3 g/m*3 10.4 C 0 km/h
170 15-04-2010 09:49:01 10.5 C 5.14 g/m*3 10.5 C 0 km/h
171 15-04-2010 10:01:02 10.5 C 5.24 g/m*3 10.5 C 0 km/h
172 15-04-2010 10:13:02 10.4 C 5.2 g/m*3 10.4 C 0 km/h
173 15-04-2010 10:25:01 10.1 C 5.11 g/m*3 10.1 C 0 km/h
174 15-04-2010 10:37:02 9.9 C 5.04 g/m*3 9.9 C 0 km/h
175 15-04-2010 10:49:02 10.2 C 4.95 g/m*3 10.2 C 0 km/h
Sensor: Nr:Datum:Temp:Abs-Feuchte:Windchill:Wind:
Aussen-T/F 176 15-04-2010 11:01:02 10.5 C 4.85 g/m*3 10.5 C 0 km/h
177 15-04-2010 11:13:02 10.9 C 5.07 g/m*3 10.9 C 0 km/h
178 15-04-2010 11:25:02 11.7 C 5.12 g/m*3 11.7 C 0 km/h
179 15-04-2010 11:37:02 12.4 C 5.03 g/m*3 12.4 C 0 km/h
180 15-04-2010 11:49:02 13.2 C 4.82 g/m*3 13.2 C 0 km/h
181 15-04-2010 12:01:02 14.4 C 4.94 g/m*3 14.4 C 0 km/h
182 15-04-2010 12:13:02 14.7 C 4.53 g/m*3 14.7 C 0 km/h
183 15-04-2010 12:25:02 15 C 4.74 g/m*3 15 C 0 km/h
184 15-04-2010 12:37:02 15.2 C 4.54 g/m*3 15.2 C 0 km/h
185 15-04-2010 12:49:01 15.2 C 4.54 g/m*3 15.2 C 0 km/h
186 15-04-2010 13:01:02 14.8 C 4.43 g/m*3 14.8 C 0 km/h
187 15-04-2010 13:13:02 15.4 C 4.47 g/m*3 15.4 C 0 km/h
188 15-04-2010 13:25:01 14.2 C 4.27 g/m*3 14.2 C 0 km/h
189 15-04-2010 13:37:02 13.8 C 4.53 g/m*3 13.8 C 0 km/h
190 15-04-2010 13:49:02 13.6 C 4.47 g/m*3 13.6 C 0 km/h
191 15-04-2010 14:01:01 13.8 C 4.65 g/m*3 13.8 C 0 km/h
192 15-04-2010 14:13:01 14 C 4.46 g/m*3 14 C 0 km/h
193 15-04-2010 14:25:02 14.2 C 4.52 g/m*3 14.2 C 0 km/h
194 15-04-2010 14:37:02 15.3 C 4.7 g/m*3 15.3 C 0 km/h
195 15-04-2010 14:49:02 15.6 C 4.65 g/m*3 15.6 C 0 km/h
196 15-04-2010 15:01:03 16.4 C 4.75 g/m*3 16.4 C 0 km/h
197 15-04-2010 15:13:03 18.3 C 4.69 g/m*3 18.3 C 0 km/h
198 15-04-2010 15:25:02 17.8 C 4.55 g/m*3 17.8 C 0 km/h
199 15-04-2010 15:37:02 15.9 C 4.33 g/m*3 15.9 C 0 km/h
200 15-04-2010 15:49:02 16.6 C 4.66 g/m*3 16.6 C 0 km/h
Sensor: Nr:Datum:Temp:Abs-Feuchte:Windchill:Wind:
Aussen-T/F 201 15-04-2010 16:01:02 16.1 C 4.8 g/m*3 16.1 C 0 km/h
202 15-04-2010 16:13:02 15 C 4.62 g/m*3 15 C 0 km/h
203 15-04-2010 16:25:01 14.4 C 5.07 g/m*3 14.4 C 0 km/h
204 15-04-2010 16:37:02 14.3 C 4.79 g/m*3 14.3 C 0 km/h
205 15-04-2010 16:49:02 14.7 C 4.91 g/m*3 14.7 C 0 km/h
206 15-04-2010 17:01:02 15.4 C 4.86 g/m*3 15.4 C 0 km/h
207 15-04-2010 17:13:02 14.8 C 4.69 g/m*3 14.8 C 0 km/h
208 15-04-2010 17:25:02 15 C 4.74 g/m*3 15 C 0 km/h
209 15-04-2010 17:37:02 15.3 C 4.83 g/m*3 15.3 C 0 km/h
210 15-04-2010 17:49:02 15.8 C 4.85 g/m*3 15.8 C 0 km/h
211 15-04-2010 18:01:02 15.7 C 4.68 g/m*3 15.7 C 0 km/h
212 15-04-2010 18:13:02 15.7 C 4.82 g/m*3 15.7 C 0 km/h
213 15-04-2010 18:25:02 15.6 C 4.92 g/m*3 15.6 C 0 km/h
214 15-04-2010 18:37:02 15.5 C 5.02 g/m*3 15.5 C 0 km/h
215 15-04-2010 18:49:01 15.4 C 4.99 g/m*3 15.4 C 0 km/h
216 15-04-2010 19:01:02 15.4 C 4.73 g/m*3 15.4 C 0 km/h
217 15-04-2010 19:13:02 15.2 C 4.8 g/m*3 15.2 C 0 km/h
218 15-04-2010 19:25:01 15.1 C 4.9 g/m*3 15.1 C 0 km/h
219 15-04-2010 19:37:02 14.8 C 5.07 g/m*3 14.8 C 0 km/h
220 15-04-2010 19:49:01 14.4 C 4.7 g/m*3 14.4 C 0 km/h
221 15-04-2010 20:01:02 14.1 C 4.85 g/m*3 14.1 C 0 km/h
222 15-04-2010 20:13:03 13.8 C 4.89 g/m*3 13.8 C 0 km/h
223 15-04-2010 20:25:01 13.6 C 4.12 g/m*3 13.6 C 0 km/h
224 15-04-2010 20:37:02 13.3 C 3.81 g/m*3 13.3 C 0 km/h
225 15-04-2010 20:49:02 13.1 C 3.65 g/m*3 13.1 C 0 km/h
Sensor: Nr:Datum:Temp:Abs-Feuchte:Windchill:Wind:
Aussen-T/F 226 15-04-2010 21:01:02 12.9 C 3.61 g/m*3 12.9 C 0 km/h
227 15-04-2010 21:13:03 12.7 C 3.67 g/m*3 12.7 C 0 km/h
228 15-04-2010 21:25:01 12.6 C 3.87 g/m*3 12.6 C 0 km/h
229 15-04-2010 21:37:02 12.5 C 3.85 g/m*3 12.5 C 0 km/h
230 15-04-2010 21:49:02 12.4 C 3.82 g/m*3 12.4 C 0 km/h
231 15-04-2010 22:01:02 12.4 C 3.71 g/m*3 12.4 C 0 km/h
232 15-04-2010 22:13:02 12.2 C 3.78 g/m*3 12.2 C 0 km/h
233 15-04-2010 22:25:02 12.2 C 3.56 g/m*3 12.2 C 0 km/h
234 15-04-2010 22:37:02 12.1 C 3.43 g/m*3 12.1 C 0 km/h
235 15-04-2010 22:49:02 12.1 C 3.43 g/m*3 12.1 C 0 km/h
236 15-04-2010 23:01:02 11.9 C 3.71 g/m*3 11.9 C 0 km/h
237 15-04-2010 23:13:02 11.8 C 3.79 g/m*3 11.8 C 0 km/h
238 15-04-2010 23:25:02 11.6 C 3.85 g/m*3 11.6 C 0 km/h
239 15-04-2010 23:37:02 11.5 C 3.72 g/m*3 11.5 C 0 km/h
240 15-04-2010 23:49:01 11.4 C 3.7 g/m*3 11.4 C 0 km/h
241 16-04-2010 00:01:02 11.4 C 3.9 g/m*3 11.4 C 0 km/h
242 16-04-2010 00:13:03 11.1 C 4.03 g/m*3 11.1 C 0 km/h
243 16-04-2010 00:25:01 10.9 C 3.98 g/m*3 10.9 C 0 km/h
244 16-04-2010 00:37:02 10.8 C 3.95 g/m*3 10.8 C 0 km/h
245 16-04-2010 00:49:02 10.7 C 4.03 g/m*3 10.7 C 0 km/h
246 16-04-2010 01:01:02 10.5 C 3.98 g/m*3 10.5 C 0 km/h
247 16-04-2010 01:13:02 10.3 C 4.02 g/m*3 10.3 C 0 km/h
248 16-04-2010 01:25:02 10.1 C 3.97 g/m*3 10.1 C 0 km/h
249 16-04-2010 01:37:02 10.1 C 4.07 g/m*3 10.1 C 0 km/h
250 16-04-2010 01:49:02 9.6 C 4.21 g/m*3 9.6 C 0 km/h
Sensor: Nr:Datum:Temp:Abs-Feuchte:Windchill:Wind:
Aussen-T/F 251 16-04-2010 02:01:03 9.3 C 4.22 g/m*3 9.3 C 0 km/h
252 16-04-2010 02:13:03 9 C 4.14 g/m*3 9 C 0 km/h
253 16-04-2010 02:25:02 8.7 C 4.32 g/m*3 8.7 C 0 km/h
254 16-04-2010 02:37:02 8.4 C 4.24 g/m*3 8.4 C 0 km/h
255 16-04-2010 02:50:03 8 C 4.22 g/m*3 8 C 0 km/h
256 16-04-2010 03:02:03 7.8 C 4.24 g/m*3 7.8 C 0 km/h
257 16-04-2010 03:14:04 7.7 C 4.3 g/m*3 7.7 C 0 km/h
258 16-04-2010 03:26:04 7.7 C 4.38 g/m*3 7.7 C 0 km/h
259 16-04-2010 03:38:02 7.4 C 4.37 g/m*3 7.4 C 0 km/h
260 16-04-2010 03:50:03 7.2 C 4.4 g/m*3 7.2 C 0 km/h
261 16-04-2010 04:02:02 7.3 C 4.42 g/m*3 7.3 C 0 km/h
262 16-04-2010 04:14:02 7.6 C 4.35 g/m*3 7.6 C 0 km/h
263 16-04-2010 04:26:02 7.6 C 4.27 g/m*3 7.6 C 0 km/h
264 16-04-2010 04:38:03 7.4 C 4.21 g/m*3 7.4 C 0 km/h
265 16-04-2010 04:50:02 7.2 C 4.24 g/m*3 7.2 C 0 km/h
266 16-04-2010 05:02:01 7.1 C 4.21 g/m*3 7.1 C 0 km/h
267 16-04-2010 05:14:01 7.1 C 4.21 g/m*3 7.1 C 0 km/h
268 16-04-2010 05:26:02 6.9 C 4.23 g/m*3 6.9 C 0 km/h
269 16-04-2010 05:38:02 6.8 C 4.28 g/m*3 6.8 C 0 km/h
270 16-04-2010 05:50:02 6.5 C 4.27 g/m*3 6.5 C 0 km/h
271 16-04-2010 06:02:01 6.3 C 4.37 g/m*3 6.3 C 0 km/h
272 16-04-2010 06:14:01 6.3 C 4.37 g/m*3 6.3 C 0 km/h
273 16-04-2010 06:26:01 6.1 C 4.38 g/m*3 6.1 C 0 km/h
274 16-04-2010 06:38:02 5.8 C 4.44 g/m*3 5.8 C 0 km/h
275 16-04-2010 06:50:02 5.9 C 4.69 g/m*3 5.9 C 0 km/h
Sensor: Nr:Datum:Temp:Abs-Feuchte:Windchill:Wind:
Aussen-T/F 276 16-04-2010 07:02:02 5.8 C 4.73 g/m*3 5.8 C 0 km/h
277 16-04-2010 07:14:02 5.8 C 4.8 g/m*3 5.8 C 0 km/h
278 16-04-2010 07:26:02 5.9 C 4.9 g/m*3 5.9 C 0 km/h
279 16-04-2010 07:38:02 6 C 4.94 g/m*3 6 C 0 km/h
280 16-04-2010 07:50:02 5.9 C 4.98 g/m*3 5.9 C 0 km/h
281 16-04-2010 08:02:02 5.8 C 4.94 g/m*3 5.8 C 0 km/h
282 16-04-2010 08:14:02 5.9 C 5.05 g/m*3 5.9 C 0 km/h
283 16-04-2010 08:26:02 5.9 C 5.05 g/m*3 5.9 C 0 km/h
284 16-04-2010 08:38:02 6.1 C 5.04 g/m*3 6.1 C 0 km/h
285 16-04-2010 08:50:01 6.3 C 5.03 g/m*3 6.3 C 0 km/h
286 16-04-2010 09:02:02 6.2 C 5 g/m*3 6.2 C 0 km/h
287 16-04-2010 09:14:02 6.2 C 5 g/m*3 6.2 C 0 km/h
288 16-04-2010 09:26:01 6.2 C 5 g/m*3 6.2 C 0 km/h
289 16-04-2010 09:38:02 6.2 C 5.07 g/m*3 6.2 C 0 km/h
290 16-04-2010 09:50:02 6.8 C 5.2 g/m*3 6.8 C 0 km/h
291 16-04-2010 10:02:02 6.7 C 5.09 g/m*3 6.7 C 0 km/h
292 16-04-2010 10:14:02 6.7 C 5.09 g/m*3 6.7 C 0 km/h
293 16-04-2010 10:26:02 6.7 C 4.94 g/m*3 6.7 C 0 km/h
294 16-04-2010 10:38:02 7.1 C 4.91 g/m*3 7.1 C 0 km/h
295 16-04-2010 10:50:02 7.2 C 4.87 g/m*3 7.2 C 0 km/h
296 16-04-2010 11:02:02 7 C 4.8 g/m*3 7 C 0 km/h
297 16-04-2010 11:14:02 7.5 C 4.88 g/m*3 7.5 C 0 km/h
298 16-04-2010 11:26:02 7.3 C 4.66 g/m*3 7.3 C 0 km/h
299 16-04-2010 11:38:02 7.5 C 4.8 g/m*3 7.5 C 0 km/h
300 16-04-2010 11:50:02 7.6 C 4.59 g/m*3 7.6 C 0 km/h
Sensor: Nr:Datum:Temp:Abs-Feuchte:Windchill:Wind:
Aussen-T/F 301 16-04-2010 12:02:03 8.5 C 4.7 g/m*3 8.5 C 0 km/h
302 16-04-2010 12:14:03 8.8 C 4.61 g/m*3 8.8 C 0 km/h
303 16-04-2010 12:26:02 9 C 4.41 g/m*3 9 C 0 km/h
304 16-04-2010 12:38:02 9.3 C 4.49 g/m*3 9.3 C 0 km/h
305 16-04-2010 12:50:02 9.1 C 4.35 g/m*3 9.1 C 0 km/h
306 16-04-2010 13:02:02 9.8 C 4.36 g/m*3 9.8 C 0 km/h
307 16-04-2010 13:14:02 10.2 C 4.28 g/m*3 10.2 C 0 km/h
308 16-04-2010 13:26:01 10.7 C 4.32 g/m*3 10.7 C 0 km/h
309 16-04-2010 13:38:02 11.2 C 4.16 g/m*3 11.2 C 0 km/h
310 16-04-2010 13:50:02 11.6 C 3.95 g/m*3 11.6 C 0 km/h
311 16-04-2010 14:02:02 12.3 C 3.91 g/m*3 12.3 C 0 km/h
312 16-04-2010 14:14:02 13.3 C 3.7 g/m*3 13.3 C 0 km/h
313 16-04-2010 14:26:02 13.5 C 3.63 g/m*3 13.5 C 0 km/h
314 16-04-2010 14:38:02 14 C 3.62 g/m*3 14 C 0 km/h
315 16-04-2010 14:50:02 14.5 C 3.73 g/m*3 14.5 C 0 km/h
316 16-04-2010 15:02:02 15 C 3.59 g/m*3 15 C 0 km/h
317 16-04-2010 15:14:02 13.9 C 3.48 g/m*3 13.9 C 0 km/h
318 16-04-2010 15:26:02 14.1 C 3.64 g/m*3 14.1 C 0 km/h
319 16-04-2010 15:38:01 15.2 C 3.5 g/m*3 15.2 C 0 km/h
320 16-04-2010 15:50:02 15.3 C 3.4 g/m*3 15.3 C 0 km/h
321 16-04-2010 16:02:01 15 C 3.33 g/m*3 15 C 0 km/h
322 16-04-2010 16:14:01 15.3 C 3.4 g/m*3 15.3 C 0 km/h
323 16-04-2010 16:26:02 14.6 C 3.5 g/m*3 14.6 C 0 km/h
324 16-04-2010 16:38:01 14 C 3.26 g/m*3 14 C 0 km/h
325 16-04-2010 16:50:03 14.1 C 3.4 g/m*3 14.1 C 0 km/h
Sensor: Nr:Datum:Temp:Abs-Feuchte:Windchill:Wind:
Aussen-T/F 326 16-04-2010 17:02:02 14.7 C 3.4 g/m*3 14.7 C 0 km/h
327 16-04-2010 17:14:02 15.3 C 3.4 g/m*3 15.3 C 0 km/h
328 16-04-2010 17:26:02 15.4 C 3.28 g/m*3 15.4 C 0 km/h
329 16-04-2010 17:38:02 15.3 C 3.26 g/m*3 15.3 C 0 km/h
330 16-04-2010 17:50:02 14.7 C 3.27 g/m*3 14.7 C 0 km/h
331 16-04-2010 18:02:02 15.5 C 3.17 g/m*3 15.5 C 0 km/h
332 16-04-2010 18:14:02 15.6 C 3.32 g/m*3 15.6 C 0 km/h
333 16-04-2010 18:26:02 14.6 C 3.25 g/m*3 14.6 C 0 km/h
334 16-04-2010 18:38:02 14.3 C 3.19 g/m*3 14.3 C 0 km/h
335 16-04-2010 18:50:02 14.5 C 3.36 g/m*3 14.5 C 0 km/h
336 16-04-2010 19:02:02 14.5 C 3.23 g/m*3 14.5 C 0 km/h
337 16-04-2010 19:14:02 14.6 C 3.38 g/m*3 14.6 C 0 km/h
338 16-04-2010 19:26:02 13.4 C 3.25 g/m*3 13.4 C 0 km/h
339 16-04-2010 19:38:01 12.9 C 3.38 g/m*3 12.9 C 0 km/h
340 16-04-2010 19:50:02 12.5 C 3.41 g/m*3 12.5 C 0 km/h
341 16-04-2010 20:02:01 12.3 C 3.47 g/m*3 12.3 C 0 km/h
342 16-04-2010 20:14:01 11.7 C 3.56 g/m*3 11.7 C 0 km/h
343 16-04-2010 20:26:02 11.2 C 3.65 g/m*3 11.2 C 0 km/h
344 16-04-2010 20:38:01 10.8 C 3.66 g/m*3 10.8 C 0 km/h
345 16-04-2010 20:50:02 10.5 C 3.69 g/m*3 10.5 C 0 km/h
346 16-04-2010 21:02:01 10.3 C 3.83 g/m*3 10.3 C 0 km/h
347 16-04-2010 21:14:01 9.9 C 3.83 g/m*3 9.9 C 0 km/h
348 16-04-2010 21:26:02 9.6 C 3.85 g/m*3 9.6 C 0 km/h
349 16-04-2010 21:38:01 9.3 C 3.86 g/m*3 9.3 C 0 km/h
350 16-04-2010 21:50:03 9.1 C 3.99 g/m*3 9.1 C 0 km/h
Sensor: Nr:Datum:Temp:Abs-Feuchte:Windchill:Wind:
Aussen-T/F 351 16-04-2010 22:02:02 8.9 C 3.94 g/m*3 8.9 C 0 km/h
352 16-04-2010 22:14:02 8.8 C 3.92 g/m*3 8.8 C 0 km/h
353 16-04-2010 22:26:03 8.5 C 4.1 g/m*3 8.5 C 0 km/h
354 16-04-2010 22:38:02 8.2 C 4.02 g/m*3 8.2 C 0 km/h
355 16-04-2010 22:50:03 8.1 C 4.08 g/m*3 8.1 C 0 km/h
356 16-04-2010 23:03:02 7.9 C 4.11 g/m*3 7.9 C 0 km/h
357 16-04-2010 23:15:02 7.7 C 4.14 g/m*3 7.7 C 0 km/h
358 16-04-2010 23:27:02 7.6 C 4.19 g/m*3 7.6 C 0 km/h
359 16-04-2010 23:39:02 7.4 C 4.14 g/m*3 7.4 C 0 km/h
360 16-04-2010 23:51:02 7.1 C 4.13 g/m*3 7.1 C 0 km/h
361 17-04-2010 00:03:02 7 C 4.18 g/m*3 7 C 0 km/h
362 17-04-2010 00:15:02 6.7 C 4.26 g/m*3 6.7 C 0 km/h
363 17-04-2010 00:27:02 6.5 C 4.27 g/m*3 6.5 C 0 km/h
364 17-04-2010 00:39:02 6.4 C 4.25 g/m*3 6.4 C 0 km/h
365 17-04-2010 00:51:02 6.2 C 4.19 g/m*3 6.2 C 0 km/h
366 17-04-2010 01:03:02 6.1 C 4.16 g/m*3 6.1 C 0 km/h
367 17-04-2010 01:15:02 5.9 C 4.33 g/m*3 5.9 C 0 km/h
368 17-04-2010 01:27:02 5.7 C 4.27 g/m*3 5.7 C 0 km/h
369 17-04-2010 01:39:02 5.5 C 4.28 g/m*3 5.5 C 0 km/h
370 17-04-2010 01:51:02 5.4 C 4.33 g/m*3 5.4 C 0 km/h
371 17-04-2010 02:03:02 5.2 C 4.34 g/m*3 5.2 C 0 km/h
372 17-04-2010 02:15:02 5.1 C 4.24 g/m*3 5.1 C 0 km/h
373 17-04-2010 02:27:02 5 C 4.28 g/m*3 5 C 0 km/h
374 17-04-2010 02:39:02 4.7 C 4.33 g/m*3 4.7 C 0 km/h
375 17-04-2010 02:51:03 4.5 C 4.27 g/m*3 4.5 C 0 km/h
Sensor: Nr:Datum:Temp:Abs-Feuchte:Windchill:Wind:
Aussen-T/F 376 17-04-2010 03:03:03 4.4 C 4.31 g/m*3 4.4 C 0 km/h
377 17-04-2010 03:15:03 4.2 C 4.25 g/m*3 4.2 C 0 km/h
378 17-04-2010 03:27:03 4.2 C 4.25 g/m*3 4.2 C 0 km/h
379 17-04-2010 03:39:03 3.7 C 4.18 g/m*3 3.7 C 0 km/h
380 17-04-2010 03:51:03 3.6 C 4.27 g/m*3 3.6 C 0 km/h
381 17-04-2010 04:03:03 3.6 C 4.27 g/m*3 3.6 C 0 km/h
382 17-04-2010 04:15:03 3.4 C 4.34 g/m*3 3.4 C 0 km/h
383 17-04-2010 04:27:03 3.2 C 4.34 g/m*3 3.2 C 0 km/h
384 17-04-2010 04:39:03 3 C 4.34 g/m*3 3 C 0 km/h
385 17-04-2010 04:51:03 2.8 C 4.28 g/m*3 2.8 C 0 km/h
386 17-04-2010 05:03:03 2.6 C 4.28 g/m*3 2.6 C 0 km/h
387 17-04-2010 05:15:03 2.5 C 4.25 g/m*3 2.5 C 0 km/h
388 17-04-2010 05:27:03 2.4 C 4.28 g/m*3 2.4 C 0 km/h
389 17-04-2010 05:39:03 2.2 C 4.28 g/m*3 2.2 C 0 km/h
390 17-04-2010 05:51:03 2.1 C 4.31 g/m*3 2.1 C 0 km/h
391 17-04-2010 06:03:03 1.9 C 4.3 g/m*3 1.9 C 0 km/h
392 17-04-2010 06:15:03 1.8 C 4.28 g/m*3 1.8 C 0 km/h
393 17-04-2010 06:27:03 1.9 C 4.3 g/m*3 1.9 C 0 km/h
394 17-04-2010 06:39:03 1.6 C 4.22 g/m*3 1.6 C 0 km/h
395 17-04-2010 06:51:04 1.5 C 4.19 g/m*3 1.5 C 0 km/h
396 17-04-2010 07:03:04 1.5 C 4.24 g/m*3 1.5 C 0 km/h
397 17-04-2010 07:15:04 1.5 C 4.24 g/m*3 1.5 C 0 km/h
398 17-04-2010 07:27:04 1.6 C 4.27 g/m*3 1.6 C 0 km/h
399 17-04-2010 07:39:04 1.6 C 4.33 g/m*3 1.6 C 0 km/h
400 17-04-2010 07:51:04 1.7 C 4.36 g/m*3 1.7 C 0 km/h
Sensor: Nr:Datum:Temp:Abs-Feuchte:Windchill:Wind:
Aussen-T/F 401 17-04-2010 08:03:04 1.9 C 4.42 g/m*3 1.9 C 0 km/h
402 17-04-2010 08:15:03 2.2 C 4.51 g/m*3 2.2 C 0 km/h
403 17-04-2010 08:27:03 2.5 C 4.6 g/m*3 2.5 C 0 km/h
404 17-04-2010 08:39:02 2.7 C 4.66 g/m*3 2.7 C 0 km/h
405 17-04-2010 08:51:04 3 C 4.7 g/m*3 3 C 0 km/h
406 17-04-2010 09:03:03 3.3 C 4.73 g/m*3 3.3 C 0 km/h
407 17-04-2010 09:15:04 3.7 C 4.8 g/m*3 3.7 C 0 km/h
408 17-04-2010 09:27:04 4.4 C 4.9 g/m*3 4.4 C 0 km/h
409 17-04-2010 09:39:03 5.1 C 4.92 g/m*3 5.1 C 0 km/h
410 17-04-2010 09:51:01 5.6 C 4.88 g/m*3 5.6 C 0 km/h
411 17-04-2010 10:03:01 6.7 C 4.94 g/m*3 6.7 C 0 km/h
412 17-04-2010 10:15:02 7 C 4.57 g/m*3 7 C 0 km/h
413 17-04-2010 10:27:02 7.5 C 4.4 g/m*3 7.5 C 0 km/h
414 17-04-2010 10:39:01 8.1 C 3.99 g/m*3 8.1 C 0 km/h
415 17-04-2010 10:51:01 8.6 C 3.87 g/m*3 8.6 C 0 km/h
416 17-04-2010 11:03:02 9.3 C 3.86 g/m*3 9.3 C 0 km/h
417 17-04-2010 11:15:01 10 C 3.66 g/m*3 10 C 0 km/h
418 17-04-2010 11:27:01 10.1 C 3.22 g/m*3 10.1 C 0 km/h
419 17-04-2010 11:39:01 10.5 C 3.39 g/m*3 10.5 C 0 km/h
420 17-04-2010 11:51:01 11 C 3.2 g/m*3 11 C 0 km/h
421 17-04-2010 12:03:02 11.2 C 3.24 g/m*3 11.2 C 0 km/h
422 17-04-2010 12:15:02 12 C 3.09 g/m*3 12 C 0 km/h
423 17-04-2010 12:27:02 12.5 C 2.97 g/m*3 12.5 C 0 km/h
424 17-04-2010 12:39:01 12.7 C 2.89 g/m*3 12.7 C 0 km/h
425 17-04-2010 12:51:01 12.6 C 2.77 g/m*3 12.6 C 0 km/h
Sensor: Nr:Datum:Temp:Abs-Feuchte:Windchill:Wind:
Aussen-T/F 426 17-04-2010 13:03:02 13.2 C 2.3 g/m*3 13.2 C 0 km/h
427 17-04-2010 13:15:02 13.9 C 2.4 g/m*3 13.9 C 0 km/h
428 17-04-2010 13:27:02 14.8 C 2.53 g/m*3 14.8 C 0 km/h
429 17-04-2010 13:39:01 15.5 C 2.64 g/m*3 15.5 C 0 km/h
430 17-04-2010 13:51:01 15.6 C 2.66 g/m*3 15.6 C 0 km/h
431 17-04-2010 14:03:02 16.4 C 2.79 g/m*3 16.4 C 0 km/h
432 17-04-2010 14:15:02 17 C 2.89 g/m*3 17 C 0 km/h
433 17-04-2010 14:27:02 17.6 C 3 g/m*3 17.6 C 0 km/h
434 17-04-2010 14:39:01 18.4 C 3.15 g/m*3 18.4 C 0 km/h
435 17-04-2010 14:51:01 19.4 C 3.34 g/m*3 19.4 C 0 km/h
436 17-04-2010 15:03:02 20 C 3.46 g/m*3 20 C 0 km/h
437 17-04-2010 15:15:02 20.8 C 3.62 g/m*3 20.8 C 0 km/h
438 17-04-2010 15:27:02 21 C 3.66 g/m*3 21 C 0 km/h
439 17-04-2010 15:39:01 21.9 C 3.86 g/m*3 21.9 C 0 km/h
440 17-04-2010 15:51:01 22.2 C 3.93 g/m*3 22.2 C 0 km/h
441 17-04-2010 16:03:02 20.9 C 3.64 g/m*3 20.9 C 0 km/h
442 17-04-2010 16:15:02 21 C 3.66 g/m*3 21 C 0 km/h
443 17-04-2010 16:27:02 22.2 C 3.93 g/m*3 22.2 C 0 km/h
444 17-04-2010 16:39:01 23.3 C 4.18 g/m*3 23.3 C 0 km/h
445 17-04-2010 16:51:01 23.5 C 4.23 g/m*3 23.5 C 0 km/h
446 17-04-2010 17:03:02 23.9 C 4.33 g/m*3 23.9 C 0 km/h
447 17-04-2010 17:15:02 24.1 C 4.38 g/m*3 24.1 C 0 km/h
448 17-04-2010 17:27:02 24.8 C 4.55 g/m*3 24.8 C 0 km/h
449 17-04-2010 17:39:02 23.4 C 4.21 g/m*3 23.4 C 0 km/h
450 17-04-2010 17:51:01 23.6 C 4.25 g/m*3 23.6 C 0 km/h
Sensor: Nr:Datum:Temp:Abs-Feuchte:Windchill:Wind:
Aussen-T/F 451 17-04-2010 18:03:02 24.1 C 4.38 g/m*3 24.1 C 0 km/h
452 17-04-2010 18:15:02 24.8 C 4.55 g/m*3 24.8 C 0 km/h
453 17-04-2010 18:27:02 24.1 C 4.38 g/m*3 24.1 C 0 km/h
454 17-04-2010 18:39:02 24.6 C 4.5 g/m*3 24.6 C 0 km/h
455 17-04-2010 18:51:01 24.5 C 4.48 g/m*3 24.5 C 0 km/h
456 17-04-2010 19:03:02 24.2 C 4.4 g/m*3 24.2 C 0 km/h
457 17-04-2010 19:15:02 24 C 4.35 g/m*3 24 C 0 km/h
458 17-04-2010 19:27:02 23 C 4.11 g/m*3 23 C 0 km/h
459 17-04-2010 19:39:02 22.3 C 3.95 g/m*3 22.3 C 0 km/h
460 17-04-2010 19:51:01 21.6 C 3.79 g/m*3 21.6 C 0 km/h
461 17-04-2010 20:03:02 20.1 C 3.48 g/m*3 20.1 C 0 km/h
462 17-04-2010 20:15:02 18.6 C 3.18 g/m*3 18.6 C 0 km/h
463 17-04-2010 20:27:02 17.1 C 2.91 g/m*3 17.1 C 0 km/h
464 17-04-2010 20:39:01 16.2 C 2.76 g/m*3 16.2 C 0 km/h
465 17-04-2010 20:51:01 15.2 C 2.73 g/m*3 15.2 C 0 km/h
466 17-04-2010 21:03:02 14.5 C 3.11 g/m*3 14.5 C 0 km/h
467 17-04-2010 21:15:02 13.7 C 3.08 g/m*3 13.7 C 0 km/h
468 17-04-2010 21:27:02 13.5 C 3.16 g/m*3 13.5 C 0 km/h
469 17-04-2010 21:39:01 13.2 C 3.1 g/m*3 13.2 C 0 km/h
470 17-04-2010 21:51:02 12.9 C 3.27 g/m*3 12.9 C 0 km/h
471 17-04-2010 22:03:01 12.4 C 3.17 g/m*3 12.4 C 0 km/h
472 17-04-2010 22:15:02 11.8 C 3.26 g/m*3 11.8 C 0 km/h
473 17-04-2010 22:27:02 11.9 C 3.28 g/m*3 11.9 C 0 km/h
474 17-04-2010 22:39:02 11.7 C 3.35 g/m*3 11.7 C 0 km/h
475 17-04-2010 22:51:02 11.2 C 3.45 g/m*3 11.2 C 0 km/h
Sensor: Nr:Datum:Temp:Abs-Feuchte:Windchill:Wind:
Aussen-T/F 476 17-04-2010 23:04:02 10.8 C 3.66 g/m*3 10.8 C 0 km/h
477 17-04-2010 23:16:02 10.4 C 3.66 g/m*3 10.4 C 0 km/h
478 17-04-2010 23:28:02 10.2 C 3.52 g/m*3 10.2 C 0 km/h
479 17-04-2010 23:40:02 9.6 C 3.57 g/m*3 9.6 C 0 km/h
480 17-04-2010 23:52:02 9.5 C 3.64 g/m*3 9.5 C 0 km/h
481 18-04-2010 00:04:02 9.2 C 3.57 g/m*3 9.2 C 0 km/h
482 18-04-2010 00:16:02 9 C 3.61 g/m*3 9 C 0 km/h
483 18-04-2010 00:28:02 8.9 C 3.68 g/m*3 8.9 C 0 km/h
484 18-04-2010 00:40:02 8.7 C 3.63 g/m*3 8.7 C 0 km/h
485 18-04-2010 00:52:03 8.3 C 3.54 g/m*3 8.3 C 0 km/h
486 18-04-2010 01:04:03 8.1 C 3.66 g/m*3 8.1 C 0 km/h
487 18-04-2010 01:16:03 7.8 C 3.67 g/m*3 7.8 C 0 km/h
488 18-04-2010 01:28:03 7.5 C 3.92 g/m*3 7.5 C 0 km/h
489 18-04-2010 01:40:03 7.2 C 3.92 g/m*3 7.2 C 0 km/h
490 18-04-2010 01:52:03 7.1 C 3.82 g/m*3 7.1 C 0 km/h
491 18-04-2010 02:04:03 7 C 3.8 g/m*3 7 C 0 km/h
492 18-04-2010 02:16:03 6.8 C 3.82 g/m*3 6.8 C 0 km/h
493 18-04-2010 02:28:03 6.6 C 3.85 g/m*3 6.6 C 0 km/h
494 18-04-2010 02:40:03 6.3 C 3.85 g/m*3 6.3 C 0 km/h
495 18-04-2010 02:52:03 6 C 3.85 g/m*3 6 C 0 km/h
496 18-04-2010 03:04:03 5.9 C 3.97 g/m*3 5.9 C 0 km/h
497 18-04-2010 03:16:03 5.6 C 3.89 g/m*3 5.6 C 0 km/h
498 18-04-2010 03:28:03 5.2 C 3.86 g/m*3 5.2 C 0 km/h
499 18-04-2010 03:40:03 5.3 C 4.02 g/m*3 5.3 C 0 km/h
500 18-04-2010 03:52:03 5.1 C 3.97 g/m*3 5.1 C 0 km/h
Sensor: Nr:Datum:Temp:Abs-Feuchte:Windchill:Wind:
Aussen-T/F 501 18-04-2010 04:04:03 5 C 3.94 g/m*3 5 C 0 km/h
502 18-04-2010 04:16:03 4.8 C 4.02 g/m*3 4.8 C 0 km/h
503 18-04-2010 04:28:03 4.5 C 4.08 g/m*3 4.5 C 0 km/h
504 18-04-2010 04:40:03 4.3 C 4.09 g/m*3 4.3 C 0 km/h
505 18-04-2010 04:52:03 4.2 C 4.06 g/m*3 4.2 C 0 km/h
506 18-04-2010 05:04:04 3.9 C 4.11 g/m*3 3.9 C 0 km/h
507 18-04-2010 05:16:04 3.8 C 4.08 g/m*3 3.8 C 0 km/h
508 18-04-2010 05:28:04 3.8 C 4.08 g/m*3 3.8 C 0 km/h
509 18-04-2010 05:40:04 3.6 C 4.09 g/m*3 3.6 C 0 km/h
510 18-04-2010 05:52:04 3.4 C 4.03 g/m*3 3.4 C 0 km/h
511 18-04-2010 06:04:04 3.3 C 4.06 g/m*3 3.3 C 0 km/h
512 18-04-2010 06:16:04 3.1 C 4.07 g/m*3 3.1 C 0 km/h
513 18-04-2010 06:28:04 3 C 4.04 g/m*3 3 C 0 km/h
514 18-04-2010 06:40:04 2.9 C 4.07 g/m*3 2.9 C 0 km/h
515 18-04-2010 06:52:04 2.8 C 4.11 g/m*3 2.8 C 0 km/h
516 18-04-2010 07:04:04 2.7 C 4.14 g/m*3 2.7 C 0 km/h
517 18-04-2010 07:16:04 2.6 C 4.17 g/m*3 2.6 C 0 km/h
518 18-04-2010 07:28:04 2.6 C 4.22 g/m*3 2.6 C 0 km/h
519 18-04-2010 07:40:04 2.6 C 4.17 g/m*3 2.6 C 0 km/h
520 18-04-2010 07:52:04 2.8 C 4.22 g/m*3 2.8 C 0 km/h
521 18-04-2010 08:04:02 3.1 C 4.25 g/m*3 3.1 C 0 km/h
522 18-04-2010 08:16:02 3.4 C 4.34 g/m*3 3.4 C 0 km/h
523 18-04-2010 08:28:02 3.7 C 4.36 g/m*3 3.7 C 0 km/h
524 18-04-2010 08:40:02 4 C 4.26 g/m*3 4 C 0 km/h
525 18-04-2010 08:52:01 4.3 C 4.35 g/m*3 4.3 C 0 km/h
Sensor: Nr:Datum:Temp:Abs-Feuchte:Windchill:Wind:
Aussen-T/F 526 18-04-2010 09:04:02 4.6 C 4.37 g/m*3 4.6 C 0 km/h
527 18-04-2010 09:16:01 5.1 C 4.38 g/m*3 5.1 C 0 km/h
528 18-04-2010 09:28:01 5.7 C 4.48 g/m*3 5.7 C 0 km/h
529 18-04-2010 09:40:02 6.3 C 4.52 g/m*3 6.3 C 0 km/h
530 18-04-2010 09:52:02 7.2 C 4.47 g/m*3 7.2 C 0 km/h
531 18-04-2010 10:04:02 7.9 C 4.44 g/m*3 7.9 C 0 km/h
532 18-04-2010 10:16:02 8.5 C 4.27 g/m*3 8.5 C 0 km/h
533 18-04-2010 10:28:02 9.2 C 4.29 g/m*3 9.2 C 0 km/h
534 18-04-2010 10:40:02 9.7 C 4.15 g/m*3 9.7 C 0 km/h
535 18-04-2010 10:52:02 10.7 C 4.32 g/m*3 10.7 C 0 km/h
536 18-04-2010 11:04:02 11.5 C 4.23 g/m*3 11.5 C 0 km/h
537 18-04-2010 11:16:02 12.4 C 4.37 g/m*3 12.4 C 0 km/h
538 18-04-2010 11:28:02 13.4 C 4.42 g/m*3 13.4 C 0 km/h
539 18-04-2010 11:40:02 14 C 4.34 g/m*3 14 C 0 km/h
540 18-04-2010 11:52:02 15 C 4.36 g/m*3 15 C 0 km/h
541 18-04-2010 12:04:02 15.5 C 4.23 g/m*3 15.5 C 0 km/h
542 18-04-2010 12:16:01 16.1 C 4.11 g/m*3 16.1 C 0 km/h
543 18-04-2010 12:28:01 16.6 C 3.67 g/m*3 16.6 C 0 km/h
544 18-04-2010 12:40:02 17 C 2.89 g/m*3 17 C 0 km/h
545 18-04-2010 12:52:02 17.2 C 2.93 g/m*3 17.2 C 0 km/h
546 18-04-2010 13:04:02 18 C 3.07 g/m*3 18 C 0 km/h
547 18-04-2010 13:16:02 18.5 C 3.16 g/m*3 18.5 C 0 km/h
548 18-04-2010 13:28:02 19.5 C 3.36 g/m*3 19.5 C 0 km/h
549 18-04-2010 13:40:02 19.7 C 3.4 g/m*3 19.7 C 0 km/h
550 18-04-2010 13:52:01 20.6 C 3.58 g/m*3 20.6 C 0 km/h
Sensor: Nr:Datum:Temp:Abs-Feuchte:Windchill:Wind:
Aussen-T/F 551 18-04-2010 14:04:02 20.1 C 3.48 g/m*3 20.1 C 0 km/h
552 18-04-2010 14:16:01 21 C 3.66 g/m*3 21 C 0 km/h
553 18-04-2010 14:28:01 22.2 C 3.93 g/m*3 22.2 C 0 km/h
554 18-04-2010 14:40:02 22 C 3.88 g/m*3 22 C 0 km/h
555 18-04-2010 14:52:02 22.7 C 4.04 g/m*3 22.7 C 0 km/h
556 18-04-2010 15:04:01 23.1 C 4.13 g/m*3 23.1 C 0 km/h
557 18-04-2010 15:16:02 23.5 C 4.23 g/m*3 23.5 C 0 km/h
558 18-04-2010 15:28:02 23.6 C 4.25 g/m*3 23.6 C 0 km/h
559 18-04-2010 15:40:02 23.3 C 4.18 g/m*3 23.3 C 0 km/h
560 18-04-2010 15:52:01 22.9 C 4.09 g/m*3 22.9 C 0 km/h
561 18-04-2010 16:04:02 24 C 4.35 g/m*3 24 C 0 km/h
562 18-04-2010 16:16:01 23.7 C 4.28 g/m*3 23.7 C 0 km/h
563 18-04-2010 16:28:01 24.6 C 4.5 g/m*3 24.6 C 0 km/h
564 18-04-2010 16:40:02 24.7 C 4.53 g/m*3 24.7 C 0 km/h
565 18-04-2010 16:52:02 25.1 C 4.63 g/m*3 25.1 C 0 km/h
566 18-04-2010 17:04:02 26 C 4.87 g/m*3 26 C 0 km/h
567 18-04-2010 17:16:02 26.9 C 5.12 g/m*3 26.9 C 0 km/h
568 18-04-2010 17:28:02 25.9 C 4.84 g/m*3 25.9 C 0 km/h
569 18-04-2010 17:40:02 25.1 C 4.63 g/m*3 25.1 C 0 km/h
570 18-04-2010 17:52:02 24.9 C 4.58 g/m*3 24.9 C 0 km/h
571 18-04-2010 18:04:01 25.9 C 4.84 g/m*3 25.9 C 0 km/h
572 18-04-2010 18:16:01 25.9 C 4.84 g/m*3 25.9 C 0 km/h
573 18-04-2010 18:28:01 25 C 4.6 g/m*3 25 C 0 km/h
574 18-04-2010 18:40:02 25.5 C 4.73 g/m*3 25.5 C 0 km/h
575 18-04-2010 18:52:02 24.8 C 4.55 g/m*3 24.8 C 0 km/h
Sensor: Nr:Datum:Temp:Abs-Feuchte:Windchill:Wind:
Aussen-T/F 576 18-04-2010 19:04:02 24.5 C 4.48 g/m*3 24.5 C 0 km/h
577 18-04-2010 19:16:02 24.1 C 4.38 g/m*3 24.1 C 0 km/h
578 18-04-2010 19:28:02 24.6 C 4.5 g/m*3 24.6 C 0 km/h
579 18-04-2010 19:40:02 24.1 C 4.38 g/m*3 24.1 C 0 km/h
580 18-04-2010 19:52:02 22.7 C 4.04 g/m*3 22.7 C 0 km/h
581 18-04-2010 20:04:02 21.1 C 3.69 g/m*3 21.1 C 0 km/h
582 18-04-2010 20:16:01 20 C 3.46 g/m*3 20 C 0 km/h
583 18-04-2010 20:28:01 19.1 C 3.28 g/m*3 19.1 C 0 km/h
584 18-04-2010 20:40:02 18.3 C 3.13 g/m*3 18.3 C 0 km/h
585 18-04-2010 20:52:02 18.1 C 3.09 g/m*3 18.1 C 0 km/h
586 18-04-2010 21:04:02 17.8 C 3.04 g/m*3 17.8 C 0 km/h
587 18-04-2010 21:16:02 17.5 C 2.98 g/m*3 17.5 C 0 km/h
588 18-04-2010 21:28:02 17.2 C 2.93 g/m*3 17.2 C 0 km/h
589 18-04-2010 21:40:02 16.7 C 2.84 g/m*3 16.7 C 0 km/h
590 18-04-2010 21:52:01 16.4 C 2.79 g/m*3 16.4 C 0 km/h
591 18-04-2010 22:04:01 15.7 C 2.68 g/m*3 15.7 C 0 km/h
592 18-04-2010 22:17:03 15.5 C 2.64 g/m*3 15.5 C 0 km/h
593 18-04-2010 22:29:03 15 C 2.82 g/m*3 15 C 0 km/h
594 18-04-2010 22:41:03 14.5 C 3.23 g/m*3 14.5 C 0 km/h
595 18-04-2010 22:53:03 14.1 C 3.16 g/m*3 14.1 C 0 km/h
596 18-04-2010 23:05:03 13.9 C 3.12 g/m*3 13.9 C 0 km/h
597 18-04-2010 23:17:03 13.4 C 3.14 g/m*3 13.4 C 0 km/h
598 18-04-2010 23:29:03 12.7 C 3.45 g/m*3 12.7 C 0 km/h
599 18-04-2010 23:41:03 12.3 C 3.58 g/m*3 12.3 C 0 km/h
600 18-04-2010 23:53:03 12.1 C 3.65 g/m*3 12.1 C 0 km/h
Sensor: Nr:Datum:Temp:Abs-Feuchte:Windchill:Wind:
Aussen-T/F 601 19-04-2010 00:05:03 11.7 C 3.87 g/m*3 11.7 C 0 km/h
602 19-04-2010 00:17:03 11.3 C 4.08 g/m*3 11.3 C 0 km/h
603 19-04-2010 00:29:03 10.9 C 4.18 g/m*3 10.9 C 0 km/h
604 19-04-2010 00:41:03 10.7 C 4.13 g/m*3 10.7 C 0 km/h
605 19-04-2010 00:53:04 10.7 C 4.13 g/m*3 10.7 C 0 km/h
606 19-04-2010 01:05:04 10.6 C 4 g/m*3 10.6 C 0 km/h
607 19-04-2010 01:17:04 10.3 C 3.83 g/m*3 10.3 C 0 km/h
608 19-04-2010 01:29:04 10.2 C 3.81 g/m*3 10.2 C 0 km/h
609 19-04-2010 01:41:04 10.1 C 3.88 g/m*3 10.1 C 0 km/h
610 19-04-2010 01:53:04 9.8 C 3.9 g/m*3 9.8 C 0 km/h
611 19-04-2010 02:05:04 9.4 C 4.07 g/m*3 9.4 C 0 km/h
612 19-04-2010 02:17:04 9 C 4.06 g/m*3 9 C 0 km/h
613 19-04-2010 02:29:04 8.9 C 4.03 g/m*3 8.9 C 0 km/h
614 19-04-2010 02:41:04 8.6 C 4.12 g/m*3 8.6 C 0 km/h
615 19-04-2010 02:53:04 8.5 C 4.1 g/m*3 8.5 C 0 km/h
616 19-04-2010 03:05:04 8.4 C 4.07 g/m*3 8.4 C 0 km/h
617 19-04-2010 03:17:04 8 C 4.22 g/m*3 8 C 0 km/h
618 19-04-2010 03:29:04 8 C 4.22 g/m*3 8 C 0 km/h
619 19-04-2010 03:41:04 7.8 C 4.33 g/m*3 7.8 C 0 km/h
620 19-04-2010 03:53:04 7.5 C 4.32 g/m*3 7.5 C 0 km/h
621 19-04-2010 04:05:04 7.4 C 4.29 g/m*3 7.4 C 0 km/h
622 19-04-2010 04:17:04 7.3 C 4.35 g/m*3 7.3 C 0 km/h
623 19-04-2010 04:29:04 7 C 4.34 g/m*3 7 C 0 km/h
624 19-04-2010 04:41:04 6.8 C 4.36 g/m*3 6.8 C 0 km/h
625 19-04-2010 04:53:05 6.6 C 4.38 g/m*3 6.6 C 0 km/h
Sensor: Nr:Datum:Temp:Abs-Feuchte:Windchill:Wind:
Aussen-T/F 626 19-04-2010 05:05:05 6.6 C 4.45 g/m*3 6.6 C 0 km/h
627 19-04-2010 05:17:05 6.8 C 4.59 g/m*3 6.8 C 0 km/h
628 19-04-2010 05:29:05 6.2 C 4.49 g/m*3 6.2 C 0 km/h
629 19-04-2010 05:41:05 5.9 C 4.54 g/m*3 5.9 C 0 km/h
630 19-04-2010 05:53:05 5.8 C 4.58 g/m*3 5.8 C 0 km/h
631 19-04-2010 06:05:05 5.7 C 4.55 g/m*3 5.7 C 0 km/h
632 19-04-2010 06:17:05 5.4 C 4.54 g/m*3 5.4 C 0 km/h
633 19-04-2010 06:29:05 5.2 C 4.54 g/m*3 5.2 C 0 km/h
634 19-04-2010 06:41:05 5.1 C 4.65 g/m*3 5.1 C 0 km/h
635 19-04-2010 06:53:05 5 C 4.62 g/m*3 5 C 0 km/h
636 19-04-2010 07:05:02 5 C 4.62 g/m*3 5 C 0 km/h
637 19-04-2010 07:17:02 4.8 C 4.63 g/m*3 4.8 C 0 km/h
638 19-04-2010 07:29:02 4.9 C 4.73 g/m*3 4.9 C 0 km/h
639 19-04-2010 07:41:02 5.2 C 4.75 g/m*3 5.2 C 0 km/h
640 19-04-2010 07:53:02 5.4 C 4.81 g/m*3 5.4 C 0 km/h
641 19-04-2010 08:05:02 5.7 C 4.77 g/m*3 5.7 C 0 km/h
642 19-04-2010 08:17:02 6 C 4.79 g/m*3 6 C 0 km/h
643 19-04-2010 08:29:02 6.2 C 4.78 g/m*3 6.2 C 0 km/h
644 19-04-2010 08:41:02 6.6 C 4.91 g/m*3 6.6 C 0 km/h
645 19-04-2010 08:53:01 7.5 C 5.36 g/m*3 7.5 C 0 km/h
646 19-04-2010 09:05:02 8.4 C 5.77 g/m*3 8.4 C 0 km/h
647 19-04-2010 09:17:01 8.8 C 5.83 g/m*3 8.8 C 0 km/h
648 19-04-2010 09:29:01 9.1 C 5.77 g/m*3 9.1 C 0 km/h
649 19-04-2010 09:41:02 9.4 C 5.79 g/m*3 9.4 C 0 km/h
650 19-04-2010 09:53:02 9.7 C 5.81 g/m*3 9.7 C 0 km/h
Sensor: Nr:Datum:Temp:Abs-Feuchte:Windchill:Wind:
Aussen-T/F 651 19-04-2010 10:05:02 10.1 C 5.77 g/m*3 10.1 C 0 km/h
652 19-04-2010 10:17:01 10.4 C 5.78 g/m*3 10.4 C 0 km/h
653 19-04-2010 10:29:01 10.7 C 5.7 g/m*3 10.7 C 0 km/h
654 19-04-2010 10:41:02 11.2 C 5.68 g/m*3 11.2 C 0 km/h
655 19-04-2010 10:53:02 11.2 C 5.68 g/m*3 11.2 C 0 km/h
656 19-04-2010 11:05:02 11.6 C 5.82 g/m*3 11.6 C 0 km/h
657 19-04-2010 11:17:02 12.2 C 5.72 g/m*3 12.2 C 0 km/h
658 19-04-2010 11:29:02 12.5 C 5.72 g/m*3 12.5 C 0 km/h
659 19-04-2010 11:41:02 12.9 C 5.75 g/m*3 12.9 C 0 km/h
660 19-04-2010 11:53:02 12.7 C 5.57 g/m*3 12.7 C 0 km/h
661 19-04-2010 12:05:02 13 C 5.67 g/m*3 13 C 0 km/h
662 19-04-2010 12:17:02 13.1 C 5.48 g/m*3 13.1 C 0 km/h
663 19-04-2010 12:29:02 13.6 C 5.65 g/m*3 13.6 C 0 km/h
664 19-04-2010 12:41:02 13.6 C 5.65 g/m*3 13.6 C 0 km/h
665 19-04-2010 12:53:01 13.8 C 5.6 g/m*3 13.8 C 0 km/h
666 19-04-2010 13:05:02 13.6 C 5.53 g/m*3 13.6 C 0 km/h
667 19-04-2010 13:17:01 13.9 C 5.63 g/m*3 13.9 C 0 km/h
668 19-04-2010 13:29:01 14 C 5.55 g/m*3 14 C 0 km/h
669 19-04-2010 13:41:01 14.3 C 5.41 g/m*3 14.3 C 0 km/h
670 19-04-2010 13:53:01 14.2 C 5.37 g/m*3 14.2 C 0 km/h
671 19-04-2010 14:05:02 14.8 C 5.57 g/m*3 14.8 C 0 km/h
672 19-04-2010 14:17:01 14.8 C 5.19 g/m*3 14.8 C 0 km/h
673 19-04-2010 14:29:01 15.6 C 5.45 g/m*3 15.6 C 0 km/h
674 19-04-2010 14:41:02 16.6 C 5.51 g/m*3 16.6 C 0 km/h
675 19-04-2010 14:53:02 16.2 C 5.24 g/m*3 16.2 C 0 km/h
Sensor: Nr:Datum:Temp:Abs-Feuchte:Windchill:Wind:
Aussen-T/F 676 19-04-2010 15:05:02 15.3 C 5.22 g/m*3 15.3 C 0 km/h
677 19-04-2010 15:17:01 15.2 C 5.19 g/m*3 15.2 C 0 km/h
678 19-04-2010 15:29:01 15.9 C 5.28 g/m*3 15.9 C 0 km/h
679 19-04-2010 15:41:02 16.5 C 5.2 g/m*3 16.5 C 0 km/h
680 19-04-2010 15:53:02 16 C 5.04 g/m*3 16 C 0 km/h
681 19-04-2010 16:05:02 15.8 C 5.25 g/m*3 15.8 C 0 km/h
682 19-04-2010 16:17:01 15.6 C 5.19 g/m*3 15.6 C 0 km/h
683 19-04-2010 16:29:01 16.5 C 5.34 g/m*3 16.5 C 0 km/h
684 19-04-2010 16:41:02 16.2 C 5.1 g/m*3 16.2 C 0 km/h
685 19-04-2010 16:53:02 16.9 C 5.18 g/m*3 16.9 C 0 km/h
686 19-04-2010 17:05:02 16.4 C 5.02 g/m*3 16.4 C 0 km/h
687 19-04-2010 17:17:01 16.3 C 5.13 g/m*3 16.3 C 0 km/h
688 19-04-2010 17:29:01 16.9 C 5.32 g/m*3 16.9 C 0 km/h
689 19-04-2010 17:41:02 16.9 C 5.18 g/m*3 16.9 C 0 km/h
690 19-04-2010 17:53:02 16.7 C 5.12 g/m*3 16.7 C 0 km/h
691 19-04-2010 18:05:02 16.4 C 5.02 g/m*3 16.4 C 0 km/h
692 19-04-2010 18:17:02 16.5 C 4.77 g/m*3 16.5 C 0 km/h
693 19-04-2010 18:29:02 16.1 C 4.8 g/m*3 16.1 C 0 km/h
694 19-04-2010 18:41:02 16.1 C 4.93 g/m*3 16.1 C 0 km/h
695 19-04-2010 18:53:02 16.2 C 4.83 g/m*3 16.2 C 0 km/h
696 19-04-2010 19:05:02 16.4 C 5.02 g/m*3 16.4 C 0 km/h
697 19-04-2010 19:17:02 15.3 C 4.96 g/m*3 15.3 C 0 km/h
698 19-04-2010 19:29:02 15 C 5.13 g/m*3 15 C 0 km/h
699 19-04-2010 19:41:02 14.8 C 5.19 g/m*3 14.8 C 0 km/h
700 19-04-2010 19:53:01 14.3 C 5.16 g/m*3 14.3 C 0 km/h
Sensor: Nr:Datum:Temp:Abs-Feuchte:Windchill:Wind:
Aussen-T/F 701 19-04-2010 20:05:02 13.9 C 5.39 g/m*3 13.9 C 0 km/h
702 19-04-2010 20:17:02 13.3 C 5.31 g/m*3 13.3 C 0 km/h
703 19-04-2010 20:29:02 13 C 5.33 g/m*3 13 C 0 km/h
704 19-04-2010 20:41:02 12.6 C 5.42 g/m*3 12.6 C 0 km/h
705 19-04-2010 20:53:02 12.3 C 5.43 g/m*3 12.3 C 0 km/h
706 19-04-2010 21:05:02 12.1 C 5.36 g/m*3 12.1 C 0 km/h
707 19-04-2010 21:17:02 11.8 C 5.47 g/m*3 11.8 C 0 km/h
708 19-04-2010 21:29:02 11.7 C 5.54 g/m*3 11.7 C 0 km/h
709 19-04-2010 21:41:01 11.4 C 5.44 g/m*3 11.4 C 0 km/h
710 19-04-2010 21:53:02 11.4 C 5.54 g/m*3 11.4 C 0 km/h
711 19-04-2010 22:06:03 11 C 5.51 g/m*3 11 C 0 km/h
712 19-04-2010 22:18:03 10.9 C 5.67 g/m*3 10.9 C 0 km/h
713 19-04-2010 22:30:03 10.5 C 5.63 g/m*3 10.5 C 0 km/h
714 19-04-2010 22:42:03 10.4 C 5.59 g/m*3 10.4 C 0 km/h
715 19-04-2010 22:54:03 10.3 C 5.65 g/m*3 10.3 C 0 km/h
716 19-04-2010 23:06:03 10.3 C 5.65 g/m*3 10.3 C 0 km/h
717 19-04-2010 23:18:03 10.1 C 5.58 g/m*3 10.1 C 0 km/h
718 19-04-2010 23:30:03 9.7 C 5.62 g/m*3 9.7 C 0 km/h
719 19-04-2010 23:42:03 9.4 C 5.61 g/m*3 9.4 C 0 km/h
720 19-04-2010 23:54:03 9.2 C 5.54 g/m*3 9.2 C 0 km/h
721 20-04-2010 00:06:03 9 C 5.47 g/m*3 9 C 0 km/h
722 20-04-2010 00:18:03 8.9 C 5.52 g/m*3 8.9 C 0 km/h
723 20-04-2010 00:30:03 8.6 C 5.41 g/m*3 8.6 C 0 km/h
724 20-04-2010 00:42:03 8.4 C 5.43 g/m*3 8.4 C 0 km/h
725 20-04-2010 00:54:03 8.3 C 5.48 g/m*3 8.3 C 0 km/h
Sensor: Nr:Datum:Temp:Abs-Feuchte:Windchill:Wind:
Aussen-T/F 726 20-04-2010 01:06:03 8.2 C 5.36 g/m*3 8.2 C 0 km/h
727 20-04-2010 01:18:04 8 C 5.37 g/m*3 8 C 0 km/h
728 20-04-2010 01:30:04 7.8 C 5.39 g/m*3 7.8 C 0 km/h
729 20-04-2010 01:42:04 7.7 C 5.35 g/m*3 7.7 C 0 km/h
730 20-04-2010 01:54:04 7.4 C 5.41 g/m*3 7.4 C 0 km/h
731 20-04-2010 02:06:04 7.1 C 5.46 g/m*3 7.1 C 0 km/h
732 20-04-2010 02:18:04 6.9 C 5.54 g/m*3 6.9 C 0 km/h
733 20-04-2010 02:30:04 6.7 C 5.47 g/m*3 6.7 C 0 km/h
734 20-04-2010 02:42:04 6.5 C 5.47 g/m*3 6.5 C 0 km/h
735 20-04-2010 02:54:04 6.3 C 5.48 g/m*3 6.3 C 0 km/h
736 20-04-2010 03:06:04 6.1 C 5.41 g/m*3 6.1 C 0 km/h
737 20-04-2010 03:18:04 6 C 5.44 g/m*3 6 C 0 km/h
738 20-04-2010 03:30:04 5.8 C 5.44 g/m*3 5.8 C 0 km/h
739 20-04-2010 03:42:04 5.7 C 5.55 g/m*3 5.7 C 0 km/h
740 20-04-2010 03:54:04 5.6 C 5.59 g/m*3 5.6 C 0 km/h
741 20-04-2010 04:06:04 5.4 C 5.51 g/m*3 5.4 C 0 km/h
742 20-04-2010 04:18:04 5.2 C 5.44 g/m*3 5.2 C 0 km/h
743 20-04-2010 04:30:04 5 C 5.44 g/m*3 5 C 0 km/h
744 20-04-2010 04:42:04 4.8 C 5.43 g/m*3 4.8 C 0 km/h
745 20-04-2010 04:54:04 4.7 C 5.4 g/m*3 4.7 C 0 km/h
746 20-04-2010 05:06:04 4.6 C 5.43 g/m*3 4.6 C 0 km/h
747 20-04-2010 05:18:05 4.5 C 5.32 g/m*3 4.5 C 0 km/h
748 20-04-2010 05:30:05 4.4 C 5.35 g/m*3 4.4 C 0 km/h
749 20-04-2010 05:42:05 4.2 C 5.28 g/m*3 4.2 C 0 km/h
750 20-04-2010 05:54:05 4.1 C 5.25 g/m*3 4.1 C 0 km/h
Sensor: Nr:Datum:Temp:Abs-Feuchte:Windchill:Wind:
Aussen-T/F 751 20-04-2010 06:06:05 3.9 C 5.31 g/m*3 3.9 C 0 km/h
752 20-04-2010 06:18:05 3.8 C 5.27 g/m*3 3.8 C 0 km/h
753 20-04-2010 06:30:05 3.6 C 5.2 g/m*3 3.6 C 0 km/h
754 20-04-2010 06:42:05 3.6 C 5.26 g/m*3 3.6 C 0 km/h
755 20-04-2010 06:54:02 3.5 C 5.23 g/m*3 3.5 C 0 km/h
756 20-04-2010 07:06:02 3.4 C 5.19 g/m*3 3.4 C 0 km/h
757 20-04-2010 07:18:02 3.4 C 5.19 g/m*3 3.4 C 0 km/h
758 20-04-2010 07:30:02 3.5 C 5.29 g/m*3 3.5 C 0 km/h
759 20-04-2010 07:42:01 3.5 C 5.29 g/m*3 3.5 C 0 km/h
760 20-04-2010 07:54:02 3.5 C 5.29 g/m*3 3.5 C 0 km/h
761 20-04-2010 08:06:01 3.5 C 5.35 g/m*3 3.5 C 0 km/h
762 20-04-2010 08:18:02 3.5 C 5.35 g/m*3 3.5 C 0 km/h
763 20-04-2010 08:30:02 3.7 C 5.48 g/m*3 3.7 C 0 km/h
764 20-04-2010 08:42:01 4 C 5.59 g/m*3 4 C 0 km/h
765 20-04-2010 08:54:01 4.2 C 5.61 g/m*3 4.2 C 0 km/h
766 20-04-2010 09:06:01 4.4 C 5.68 g/m*3 4.4 C 0 km/h
767 20-04-2010 09:18:02 4.8 C 5.83 g/m*3 4.8 C 0 km/h
768 20-04-2010 09:30:02 5.3 C 5.89 g/m*3 5.3 C 0 km/h
769 20-04-2010 09:42:01 6 C 5.95 g/m*3 6 C 0 km/h
770 20-04-2010 09:54:03 6.9 C 6.31 g/m*3 6.9 C 0 km/h
771 20-04-2010 10:06:02 7.6 C 6.2 g/m*3 7.6 C 0 km/h
772 20-04-2010 10:18:02 8.2 C 6.11 g/m*3 8.2 C 0 km/h
773 20-04-2010 10:30:02 9.1 C 5.94 g/m*3 9.1 C 0 km/h
774 20-04-2010 10:42:02 10 C 5.92 g/m*3 10 C 0 km/h
775 20-04-2010 10:54:02 10.8 C 5.83 g/m*3 10.8 C 0 km/h
Sensor: Nr:Datum:Temp:Abs-Feuchte:Windchill:Wind:
Aussen-T/F 776 20-04-2010 11:06:02 11.7 C 5.65 g/m*3 11.7 C 0 km/h
777 20-04-2010 11:18:02 12.3 C 5.54 g/m*3 12.3 C 0 km/h
778 20-04-2010 11:30:02 12.8 C 5.49 g/m*3 12.8 C 0 km/h
779 20-04-2010 11:42:02 13.4 C 5.35 g/m*3 13.4 C 0 km/h
780 20-04-2010 11:54:01 14.2 C 5.25 g/m*3 14.2 C 0 km/h
781 20-04-2010 12:06:02 14.8 C 5.07 g/m*3 14.8 C 0 km/h
782 20-04-2010 12:18:02 15.5 C 4.76 g/m*3 15.5 C 0 km/h
783 20-04-2010 12:30:02 16.2 C 4.14 g/m*3 16.2 C 0 km/h
784 20-04-2010 12:42:02 16.9 C 4.03 g/m*3 16.9 C 0 km/h
785 20-04-2010 12:54:02 17.4 C 4 g/m*3 17.4 C 0 km/h
786 20-04-2010 13:06:02 18 C 3.07 g/m*3 18 C 0 km/h
787 20-04-2010 13:18:02 18.6 C 3.18 g/m*3 18.6 C 0 km/h
788 20-04-2010 13:30:02 18.1 C 3.09 g/m*3 18.1 C 0 km/h
789 20-04-2010 13:42:01 19.1 C 3.28 g/m*3 19.1 C 0 km/h
790 20-04-2010 13:54:02 18.8 C 3.22 g/m*3 18.8 C 0 km/h
791 20-04-2010 14:06:01 19.3 C 3.32 g/m*3 19.3 C 0 km/h
792 20-04-2010 14:18:02 19.1 C 3.28 g/m*3 19.1 C 0 km/h
793 20-04-2010 14:30:02 18.5 C 3.16 g/m*3 18.5 C 0 km/h
794 20-04-2010 14:42:01 18.9 C 3.24 g/m*3 18.9 C 0 km/h
795 20-04-2010 14:54:02 20.2 C 3.5 g/m*3 20.2 C 0 km/h
796 20-04-2010 15:06:01 20.4 C 3.54 g/m*3 20.4 C 0 km/h
797 20-04-2010 15:18:02 20.7 C 3.6 g/m*3 20.7 C 0 km/h
798 20-04-2010 15:30:02 20.9 C 3.64 g/m*3 20.9 C 0 km/h
799 20-04-2010 15:42:01 20.8 C 3.62 g/m*3 20.8 C 0 km/h
800 20-04-2010 15:54:03 21.3 C 3.73 g/m*3 21.3 C 0 km/h
Sensor: Nr:Datum:Temp:Abs-Feuchte:Windchill:Wind:
Aussen-T/F 801 20-04-2010 16:06:02 21.4 C 3.75 g/m*3 21.4 C 0 km/h
802 20-04-2010 16:18:02 21.6 C 3.79 g/m*3 21.6 C 0 km/h
803 20-04-2010 16:30:02 21.5 C 3.77 g/m*3 21.5 C 0 km/h
804 20-04-2010 16:42:02 21.1 C 3.69 g/m*3 21.1 C 0 km/h
805 20-04-2010 16:54:02 20.6 C 3.58 g/m*3 20.6 C 0 km/h
806 20-04-2010 17:06:02 19.9 C 3.44 g/m*3 19.9 C 0 km/h
807 20-04-2010 17:18:02 19.7 C 3.4 g/m*3 19.7 C 0 km/h
808 20-04-2010 17:30:02 18.9 C 3.73 g/m*3 18.9 C 0 km/h
809 20-04-2010 17:42:02 18.8 C 4.03 g/m*3 18.8 C 0 km/h
810 20-04-2010 17:54:02 18 C 3.99 g/m*3 18 C 0 km/h
811 20-04-2010 18:06:02 17.5 C 4.03 g/m*3 17.5 C 0 km/h
812 20-04-2010 18:18:02 18 C 4.15 g/m*3 18 C 0 km/h
813 20-04-2010 18:30:02 17.9 C 4.12 g/m*3 17.9 C 0 km/h
814 20-04-2010 18:42:02 16.7 C 3.84 g/m*3 16.7 C 0 km/h
815 20-04-2010 18:54:02 16.9 C 4.03 g/m*3 16.9 C 0 km/h
816 20-04-2010 19:06:01 16.5 C 4.07 g/m*3 16.5 C 0 km/h
817 20-04-2010 19:18:02 15.9 C 4.06 g/m*3 15.9 C 0 km/h
818 20-04-2010 19:30:03 15.5 C 3.97 g/m*3 15.5 C 0 km/h
819 20-04-2010 19:42:01 14.9 C 4.08 g/m*3 14.9 C 0 km/h
820 20-04-2010 19:54:02 14.5 C 3.86 g/m*3 14.5 C 0 km/h
821 20-04-2010 20:06:01 13.9 C 3.6 g/m*3 13.9 C 0 km/h
822 20-04-2010 20:18:01 13.3 C 3.35 g/m*3 13.3 C 0 km/h
823 20-04-2010 20:30:01 12.8 C 3.14 g/m*3 12.8 C 0 km/h
824 20-04-2010 20:42:01 12.3 C 2.93 g/m*3 12.3 C 0 km/h
825 20-04-2010 20:54:02 12.1 C 3 g/m*3 12.1 C 0 km/h
Sensor: Nr:Datum:Temp:Abs-Feuchte:Windchill:Wind:
Aussen-T/F 826 20-04-2010 21:06:02 11.6 C 2.91 g/m*3 11.6 C 0 km/h
827 20-04-2010 21:18:02 11.4 C 2.77 g/m*3 11.4 C 0 km/h
828 20-04-2010 21:30:02 11.1 C 2.62 g/m*3 11.1 C 0 km/h
829 20-04-2010 21:42:02 10.8 C 2.77 g/m*3 10.8 C 0 km/h
830 20-04-2010 21:54:02 10.6 C 2.73 g/m*3 10.6 C 0 km/h
831 20-04-2010 22:06:02 10.3 C 2.87 g/m*3 10.3 C 0 km/h
832 20-04-2010 22:19:02 10 C 2.91 g/m*3 10 C 0 km/h
833 20-04-2010 22:31:02 9.9 C 3.08 g/m*3 9.9 C 0 km/h
834 20-04-2010 22:43:02 9.7 C 3.23 g/m*3 9.7 C 0 km/h
835 20-04-2010 22:55:02 9.4 C 3.17 g/m*3 9.4 C 0 km/h
836 20-04-2010 23:07:02 9.2 C 3.13 g/m*3 9.2 C 0 km/h
837 20-04-2010 23:19:02 9 C 3.09 g/m*3 9 C 0 km/h
838 20-04-2010 23:31:02 8.9 C 3.15 g/m*3 8.9 C 0 km/h
839 20-04-2010 23:43:02 8.6 C 3.27 g/m*3 8.6 C 0 km/h
840 20-04-2010 23:55:03 8.4 C 3.31 g/m*3 8.4 C 0 km/h

Legende:
   Min
   Max


Maximal/Minimal-Werte vom 14.04.2010 - 20.04.2010

Sensor Min Max Avg
Temp
(Aussen-T/F)
1.5 °C
17-04-2010  06:51:04
26.9 °C
18-04-2010  17:16:02
11.44 °C
Abs-Feuchte
(Aussen-T/F)
2.3 g/m*3
17-04-2010  13:03:02
6.31 g/m*3
20-04-2010  09:54:03
4.39 g/m*3
Windchill
(Aussen-T/F)
1.5 C
17-04-2010  06:51:04
26.9 C
18-04-2010  17:16:02
11.42 C

Die Daten stammen von einer Davis Vantage Pro 2 Wetter-Station und werden unter Linux mit der Software wview2wettercgi und aufbereitet. Alle Angaben erfolgen ohne Gewähr für ihre Vollständigkeit oder Richtigkeit.
Kontakt: Rainer Krienke krienke@uni-koblenz.de . Meine Webseiten an der Uni Koblenz oder privat.
Version: $Revision: 0.78 $